{"data":{"norad_id":53912,"intl_designator":"2022-119AC","name":"STARLINK-5059","alt_names":[],"object_type":"PAYLOAD","status":"ACTIVE","operator":null,"country":"US","launch_date":"2022-09-24","launch_site_code":"AFETR","launch_vehicle":null,"mission":null,"orbit_class":"UNKNOWN","rcs_meters":null,"size_class":null,"mass_kg":null,"dimensions":null,"purposes":["comms"],"wikipedia_slug":null,"has_3d_model":false,"image_url":null,"decayed_at":null,"tle_current":{"epoch":"2026-05-24T19:45:16.292736Z","epoch_age_seconds":94366,"freshness":"FRESH","line1":"1 53912U 22119AC  26144.82310524  .00000058  00000+0  21729-4 0  9994","line2":"2 53912  53.2149 331.9852 0001406  88.3600 271.7553 15.08837365203329","mean_motion":15.08837365,"eccentricity":0.0001406,"inclination_deg":53.2149,"raan_deg":331.9852,"arg_perigee_deg":88.36,"mean_anomaly_deg":271.7553,"bstar":2.1729e-5,"rev_number":20332,"period_min":95.437721347788,"perigee_km":538.77878800157,"apogee_km":540.72409823178,"semimajor_km":6917.8884431167,"source":"CELESTRAK","updated_at":"2026-05-25T13:38:17.610630Z"}}}